AirNav   Phillips 66 Aviation Fuel
 
 832 users online  

1E8 Moores Airport
Degrasse, New York, USA

GOING TO DEGRASSE?


FAA INFORMATION EFFECTIVE 13 SEPTEMBER 2018

Location

FAA Identifier: 1E8
Lat/Long: 44-23-16.5000N / 075-03-58.8000W
44-23.275000N / 075-03.980000W
44.3879167 / -75.0663333
(estimated)
Elevation: 815 ft. / 248 m (estimated)
Variation: 14W (1985)
From city: 3 miles N of DEGRASSE, NY
Time zone: UTC -4 (UTC -5 during Standard Time)
Zip code: 13684

Airport Operations

Airport use: Open to the public
Activation date: 08/1966
Control tower: no
ARTCC: BOSTON CENTER
FSS: BURLINGTON FLIGHT SERVICE STATION
NOTAMs facility: BTV (NOTAM-D service available)
Attendance: UNATNDD
Wind indicator: yes
Segmented circle: no

Airport Communications

CTAF: 122.9
WX AWOS-3P at PTD (18 nm N): 118.325 (315-265-6106)

Nearby radio navigation aids

VOR radial/distance  VOR name  Freq  Var
MSSr219/34.8MASSENA VORTAC114.1014W
SLKr284/37.0SARANAC LAKE VOR/DME109.2014W

 
NDB name  Hdg/Dist  Freq  Var  ID
POTSDAM215/21.640014WPTD .--. - -..
DRUM070/34.625713WGTB --. - -...

Airport Services

Parking: tiedowns
Airframe service: NONE
Powerplant service: NONE
Bottled oxygen: NONE
Bulk oxygen: NONE

Runway Information

Runway 2/20

Dimensions: 2200 x 55 ft. / 671 x 17 m
RY 20 STARTS AT APPROX 250 FT FM TREES ON RY END.
Surface: turf, in fair condition
RUNWAY 2  RUNWAY 20
Latitude: 44-23.095392N44-23.456023N
Longitude: 075-04.003547W075-03.957098W
Elevation: 811.0 ft.815.0 ft.
Traffic pattern: leftleft
Runway heading: 019 magnetic, 005 true199 magnetic, 185 true
Obstructions: 30 ft. trees, 8 ft. from runway, 114 ft. left of centerline, 1:1 slope to clear40 ft. trees, 71 ft. from runway, 114 ft. left of centerline, 2:1 slope to clear

Airport Ownership and Management from official FAA records

Ownership: Privately-owned
Owner: KATHRYN MOORE
2522 CO. RT. 27
RUSSELL, NY 13684
Phone (315) 848-2197
Manager: ROBIN CELLECK
4482 CO. RT 27
CANTON, NY 13617
Phone (315) 379-1907

Airport Operational Statistics

Aircraft based on the field: 5
Single engine airplanes: 3
Ultralights: 2
    
Aircraft operations: avg 83/month *
100% local general aviation
* for 12-month period ending 18 July 2017

Additional Remarks

DEER ON AND INVOF ARPT.
RY 02 DITCH IMMEDIATELY RIGHT OF THLD MARKED BY CONES.
RY 20, 58 FT TREES, 263 FT FM RY BEGINNING, ACROSS RY WIDTH & APPROXIMATELY 800 FT. ALONG BOTH SIDES.
DIRT ROAD TO HANGAR CROSSES APPROXIMATE MIDPOINT OF RY.
RWY 20 3 EARTHEN MOUNDS APPROX. 5 FT. HIGH OFF RIGHT SIDE OF RUNWAY 400 FT. FROM THRESHOLD. TREES/BRUSH NEXT TO RUNWAY THRESHOLD L/S.
RWY 02 TREES/BRUSH NEXT TO CORNER OF THRESHOLD L/S.

Instrument Procedures

There are no published instrument procedures at 1E8.

Some nearby airports with instrument procedures:

KPTD - Potsdam Municipal Airport (Damon Field) (18 nm N)
KOGS - Ogdensburg International Airport (24 nm NW)
KMSS - Massena International Airport-Richards Field (34 nm N)
KGTB - Wheeler-Sack Army Airfield (34 nm SW)
KSLK - Adirondack Regional Airport (37 nm E)
 
Loc | Ops | Rwys | IFR | FBO | Links
Com | Nav | Svcs | Stats | Notes


 
Area around 1E8 (Moores Airport)
 
Road maps at: MapQuest Bing Google
 
Aerial photo
No photo
 
Sectional chart

 
Airport distance calculator
Flying to Moores Airport? Find the distance to fly.

From to 1E8

Sunrise and sunset
Times for 22-Sep-2018
 Local
(UTC-4)
 Zulu
(UTC)
Morning civil twilight06:1910:19
Sunrise06:4810:48
Sunset18:5822:58
Evening civil twilight19:2723:27

Current date and time
Zulu (UTC)  22-Sep-2018 22:00:14
Local (UTC-4)  22-Sep-2018 18:00:14
 
METAR
KPTD 
18nm N 
222135Z AUTO 25006KT 10SM CLR 14/03 A3023 RMK AO2
KOGS 
24nm NW 
222155Z AUTO 23003KT 10SM CLR 15/05 A3022 RMK AO2 T01540054
KMSS 
34nm N 
222153Z AUTO 26005KT 10SM CLR 15/04 A3023 RMK AO2 SLP238 T01500039
KGTB 
35nm SW 
222056Z AUTO 02004KT 10SM CLR 13/05 A3023 RMK AO2 SLP239 T01300047 56004 TSNO $
TAF
KMSS 
34nm N 
221736Z 2218/2318 33009KT P6SM BKN035 FM230200 VRB03KT P6SM FEW200 FM231500 28005KT P6SM SCT120
KGTB 
35nm SW 
212100Z 2121/2223 18025G35KT 9000 -SHRA BKN030 530005 QNH2965INS TEMPO 2121/2201 19035G45KT 4800 -TSRA SCT010 BKN025CB OVC050 BECMG 2200/2201 25012G18KT 9999 NSW BKN015 QNH2967INS BECMG 2205/2206 30012KT 9999 SCT025 QNH2990INS BECMG 2211/2212 35009KT 9999 SKC QNH3017INS TX28/2121Z TN08/2211Z
KSLK 
37nm E 
221736Z 2218/2318 33007KT P6SM SCT035 BKN250 FM230000 VRB03KT P6SM SCT250 FM230600 VRB03KT 1/2SM FZFG OVC001 FM231300 VRB04KT 3SM BR SCT001 FM231400 27005KT P6SM SCT130
NOTAMs
Click for the latest NOTAMs
NOTAMs are issued by the DoD/FAA and will open in a separate window not controlled by AirNav.

 

 
 

Would you like to see your business listed on this page?

 If your business provides an interesting product or service to pilots, flight crews, aircraft, or users of the Moores Airport, you should consider listing it here.  To start the listing process, click on the button below
 
Add a business
 

Other Pages about Moores Airport

Update a link
 
Copyright © AirNav, LLC. All rights reserved. Privacy Policy  Contact